User: anonymous   Login
Location: Bagnara
(41.0500°N, 14.7833°E)
Time: 07:00:16
(UTC+00:00)
Language:

Cosmos 1809 Rocket - Orbit

View from above orbital plane
View from above orbital plane
View from above satellite
View from above satellite

Ground track
Ground track

The orbit data is extracted from the following two-line orbital elements,

1 17242U 86101B   21267.66325575  .00000021  00000-0  61353-5 0  9995
2 17242  82.5312 222.6678 0015129   2.4244 170.5696 13.83298701755199
Epoch (UTC): 24 September 2021 15:55:05
Eccentricity: 0.0015129
inclination: 82.5312°
perigee height: 941 km
apogee height: 963 km
right ascension of ascending node: 222.6678°
argument of perigee: 2.4244°
revolutions per day: 13.83298701
mean anomaly at epoch: 170.5696°
orbit number at epoch: 75519

The dashed part of the orbit path shows where the satellite is in the earth's shadow,  

DLR